This is the latest recevied weather packets stored in our database for station/object WI0K. If no packets are shown the sender has not sent any weather packets the latest 10 day(s).
| Time | Temp. | Humidity | Pressure | Rain* | Wind** | Luminosity | Snow |
|---|---|---|---|---|---|---|---|
| 1777258304 | 8.89° C | 81% | 820.9 hPa | 0 mm | - | 0 W/m² | - |
| 1777258004 | 8.89° C | 81% | 820.9 hPa | 0 mm | - | 0 W/m² | - |
| 1777257703 | 8.89° C | 80% | 820.9 hPa | 0 mm | - | 0 W/m² | - |
| 1777257402 | 8.89° C | 80% | 820.9 hPa | 0 mm | - | 0 W/m² | - |
| 1777257102 | 8.89° C | 80% | 1005.9 hPa | 0 mm | - | 0 W/m² | - |
| 1777256801 | 9.44° C | 79% | 820.7 hPa | 0 mm | - | 0 W/m² | - |
| 1777256501 | 9.44° C | 79% | 820.5 hPa | 0 mm | - | 0 W/m² | - |
| 1777256200 | 9.44° C | 77% | 1005.6 hPa | 0 mm | - | 0 W/m² | - |
| 1777255899 | 9.44° C | 78% | 820.6 hPa | 0 mm | - | 0 W/m² | - |
| 1777255599 | 9.44° C | 77% | 820.6 hPa | 0 mm | - | 0 W/m² | - |
| 1777255298 | 9.44° C | 78% | 820.9 hPa | 0 mm | - | 0 W/m² | - |
| 1777254997 | 9.44° C | 77% | 820.9 hPa | 0 mm | - | 0 W/m² | - |
| 1777254697 | 8.89° C | 77% | 820.9 hPa | 0 mm | - | 1 W/m² | - |
| 1777254396 | 9.44° C | 78% | 1005.6 hPa | 0 mm | - | 1 W/m² | - |
| 1777254096 | 8.89° C | 77% | 820.3 hPa | 0 mm | - | 2 W/m² | - |
| 1777253795 | 9.44° C | 77% | 820.1 hPa | 0 mm | - | 3 W/m² | - |
| 1777253494 | 9.44° C | 77% | 819.9 hPa | 0 mm | - | 6 W/m² | - |
| 1777253193 | 9.44° C | 76% | 819.8 hPa | 0 mm | - | 9 W/m² | - |
| 1777252893 | 9.44° C | 75% | 819.8 hPa | 0 mm | - | 16 W/m² | - |
| 1777252592 | 9.44° C | 75% | 819.7 hPa | 0 mm | - | 20 W/m² | - |
| 1777252291 | 9.44° C | 75% | 819.6 hPa | 0 mm | - | 22 W/m² | - |
| 1777251991 | 9.44° C | 75% | 1004.5 hPa | 0 mm | - | 29 W/m² | - |
| 1777251690 | 9.44° C | 75% | 819.7 hPa | 0 mm | - | 32 W/m² | - |
| 1777251389 | 9.44° C | 74% | 819.6 hPa | 0 mm | - | 41 W/m² | - |
| 1777251089 | 10° C | 74% | 819.4 hPa | 0 mm | - | 41 W/m² | - |
* Rain latest hour (hover to see other rain measurements)
** Current wind speed in m/s (hover to see current wind gust speed)